LEOPARD

Last updated on Wed Aug 26 2026 00:02:34 GMT+0000 (Coordinated Universal Time)

1 67687U 98067YD 26237.60326853 .00080889 00000+0 66756-3 0 9992 2 67687 51.6271 302.3408 0007750 47.2491 312.9157 15.69581943 31074
UTC large
Height (km)
Speed (km/s)
/
Latitude / Longitude
Inclination (degrees)
Orbital Period (minutes)
Azimuth
Elevation
Range (km)
Doppler Factor

Next 0 passes for location: London (51.5072 / 0.1276)

No passes found over London.
LEOPARD